1998-067PC (43554 NORAD) Tracking and Keplerian Element Data

This shows tracking and keplerian element data for the satellite.

Feedback or suggestion? Click here.




ElementValue
Catalog43554
Name1998-067PC
Epoch Orbit4864
Epoch Day144.27386881
Epoch Year2019
RAAN108.8086
Inclination51.6372
Eccentricity0.0007114
Argument of Perigee52.3225
Mean Anonmoly307.8413
Mean Motion15.62490189
Decay Rate0.00010477
L11 43554U 98067PC 19144.27386881 .00010477 00000-0 12111-3 0 9991
L22 43554 51.6372 108.8086 0007114 52.3225 307.8413 15.62490189 48643

Live tracking and technical data element details for 1998-067PC (NORAD 43554). 1998-067PC can be tracked NOW for your location showing map with azimuth and elevation plus other details from your city location.

Track the satellite on the map from your city or location and see movement details for azimuth, elevation, latitude, longitude, range, height, and movement on the map or in text.







IsCatalogInMostPopularTable: catalog: 43554, numindb: 169
Update: records affected: 1



GetName: 43554 1998-067PC

Hit Count: updated at: Fri, 24 May 2019 21:03:15 GMT